Find Kosmos-1225

NORAD ID: 12087 Int'l Des: 1980-097 Owner: VMF Country: SU operational
LEOCIRCULARPOLAR

現在のビュー

3D地球を読み込み中...

About Kosmos-1225

Kosmos-1225 (NORAD 12087) is a satellite launched Dec 5, 1980 by VMF of SU. It operates in LEO, CIRCULAR, POLAR orbit with a mass of 800.00 kg.

次回通過

Passes for default location (London). Set your location on the main map for personalized predictions.

高度履歴

Loading altitude history...

軌道要素

1 12087U 80097A 26194.80161352 .00000048 00000-0 34735-4 0 9998
2 12087 82.9460 95.7285 0055749 341.3871 79.5476 13.74758130287095
Epoch: Jul 13, 2026 • Age: 8 hours

現在のステータス

高度 995.6 km
遠地点 / 近地点 N/A
速度 7.36 km/s
衛星直下点 -82.68°S, 41.22°E
打ち上げ日 Dec 5, 1980
運用期間 45.6 years
タイプ other

技術仕様

分類 Payload
質量 800.00 kg
乾燥質量 800.00 kg
総質量 800.00 kg
長さ 5.00 m
直径 2.10 m
スパン 17.00 m
形状 Cyl + Ant
製造者 OAZ
バスタイプ KAUR-1 11F627
フェーズステータス In Orbit
所有者/国 VMF/SU

Most Searched